sat.trackr.live / text

‹ back to catalog

STARLINK-32511

NORAD 61727 · 2024-196W

PAYLOAD ACTIVE UNKNOWN

§ Identity

Operator
Country
US
Launch date
2024-10-30
Launch site
AFETR
Launch vehicle
Mass (kg)
RCS (m²)

Purposes: comms

External: N2YO · Heavens-Above · Gunter

§ Orbital elements

Epoch: 2026-09-21T17:37:10.667136Z

Period
93.85 min
Inclination
53.1589°
Eccentricity
0.0000936
Mean motion
15.34381569 rev/d
Perigee alt
462.1 km
Apogee alt
463.4 km
Semi-major
6,840.9 km
B*
-1.2658e-5
RAAN
267.7714°
Arg perigee
52.1658°
Mean anomaly
307.9429°
Rev number
10,721

§ Raw data

STARLINK-325111 61727U 24196W   26264.73415124 -.00000803  00000+0 -12658-4 0  99902 61727  53.1589 267.7714 0000936  52.1658 307.9429 15.34381569107215

JSON: /api/v1/satellites/61727 · /tle

For live sub-satellite position, see the globe view (requires WebGL).

§ Visibility from observer

Set your observer location to see the next 7 days of passes ≥ 10°. The values pass through the URL so the page stays shareable.

No JS? Fill the form by hand. The geolocation button needs JavaScript.